IRIDIUM 165 (43572 NORAD) Tracking and Keplerian Element Data

This shows tracking and keplerian element data for the satellite.

Feedback or suggestion? Click here.




ElementValue
Catalog43572
NameIRIDIUM 165
Epoch Orbit30743
Epoch Day159.95168792
Epoch Year2024
RAAN5.7143
Inclination86.3977
Eccentricity0.0002244
Argument of Perigee90.5924
Mean Anonmoly269.5529
Mean Motion14.3421658
Decay Rate5.19E-06
L11 43572U 18061D 24159.95168792 .00000519 00000+0 17816-3 0 9995
L22 43572 86.3977 5.7143 0002244 90.5924 269.5529 14.34216580307433



Live tracking and technical data element details for IRIDIUM 165 (NORAD 43572). IRIDIUM 165 can be tracked NOW for your location showing map with azimuth and elevation plus other details from your city location.







IsCatalogInMostPopularTable: catalog: 43572, numindb: 605
Update: records affected: 1



GetName: 43572 IRIDIUM 165

Hit Count: updated at: Mon, 17 Jun 2024 23:59:58 GMT